Regional Weather Roundup
Issued by NWS Goodland, KS

Home | Current Version | Previous Version | Graphics & Text | Print | Product List | Glossary On
Versions: 1 2 3 4 5 6 7 8 9 10 11 12 13 14 15 16 17 18 19 20 21 22 23 24 25 26 27 28 29 30 31 32 33 34 35 36 37 38 39 40 41 42 43 44 45 46 47 48 49 50
000
ASUS43 KGLD 161159
RWRGLD

GOODLAND FORECAST AREA HOURLY WEATHER ROUNDUP
NATIONAL WEATHER SERVICE GOODLAND KS
600 AM MDT WED AUG 16 2017

...OFFICIAL OBSERVATIONS...

CITY           SKY/WX    TMP DP  RH WIND       PRES   REMARKS
GOODLAND KS    CLOUDY    61  59  93 SE3       29.94S
HILL CITY KS   CLOUDY    63  63 100 S5        29.86R
IMPERIAL NEB   CLOUDY    61  58  90 W10       29.93R
MCCOOK NEB     CLOUDY    61  61 100 NW12      29.85S
AKRON CO       CLOUDY    56  53  90 NW8       30.02S
BURLINGTON CO  CLOUDY    60  57  89 N8        29.98R
LIMON CO       CLEAR     50  50 100 NW3       30.08R
$$

...UNOFFICIAL OBSERVATIONS...

CITY           SKY/WX    TMP DP  RH WIND       PRES   REMARKS
LENORA KS        N/A     61  32  33 CALM        N/A
NORTON KS      PTCLDY    61  57  88 SW8       29.85R
SHARON SPRINGS   N/A     61  59  92 NE8         N/A
TRENTON NEB      N/A     60  32  34 NW5         N/A
KIT CARSON CO    N/A     59  55  87 MISG        N/A
YUMA CO        FAIR      57  55  94 NW5       29.99F
$$




USA.gov is the U.S. government's official web portal to all federal, state and local government web resources and services.